SCP
0 0 0 0 0 0 0 0 0 0 0 0 0 0 -0 0 0 -0 0 0 -0 -0 -0 -0 -0 -0 -0 -0 -0 -0 -0 -0 -0 -0 -0 -0 -0 -0 -0 -0 -0 -0 -0 -0 -0 -0 -0 -0 -0
0 0 0 0 0 0 0 0 0 0 0 0 0 0 0 0 0 0 0 -0 -0 -0 -0 -0 -0 -0 -0 -0 -0 -0 -0 -0 -0 -0 -0 -0 -0 -0 -0 -0 -0 -0 -0 -0 -0 -0 -0 -0 -0
0 0 0 0 0 0 0 0 0 0 0 0 0 0 0 0 0 0 0 -0 -0 -0 -0 -0 -0 -0 -0 -0 -0 -0 -0 -0 -0 -0 -0 -0 -0 -0 -0 -0 -0 -0 -0 -0 -0 -0 -0 -0 -0
0 0 0 0 0 0 0 0 0 0 0 0 0 0 0 0 0 0 -0 -0 -0 -0 -0 -0 -0 -0 -0 -0 -0 -0 -0 -0 -0 -0 -0 -0 -0 -0 -0 -0 -0 -0 -0 -0 0 0 0 0 0
0 0 0 0 0 0 0 0 0 0 0 0 0 0 0 0 0 0 -0 -0 -0 -0 0 -0 -0 -0 -0 -0 -0 -0 -0 -0 -0 -0 -0 -0 -0 -0 -0 0 0 0 0 0 0 0 0 0 0
0 0 0 0 0 0 0 0 0 0 0 0 0 0 0 0 0 0 -0 -0 -0 -0 0 0 0 0 -0 -0 -0 -0 -0 -0 -0 -0 -0 -0 -0 -0 0 0 0 0 0 0 0 0 0 0 0
0 0 0 0 0 0 0 0 0 0 0 0 0 0 0 0 0 0 0 0 0 0 0 0 0 0 0 0 0 0 0 0 0 0 0 0 0 0 0 0 0 0 0 0 0 0 0 0 0
0 0 0 0 0 0 -0 0 0 0 0 0 0 0 0 0 0 0 0 0 0 0 0 0 0 0 0 0 0 0 0 0 0 0 0 0 0 0 0 0 0 0 0 0 0 0 0 0 0
0 0 0 0 0 0 0 0 0 0 0 0 0 0 0 0 0 0 0 0 0 0 0 0 0 0 0 0 0 0 0 0 0 0 0 0 0 0 0 0 0 0 0 0 0 0 0 0 0
0 0 0 0 0 0 0 -0 0 0 0 0 0 0 0 0 0 0 0 0 0 0 0 0 0 0 0 0 0 0 0 0 0 0 0 0 0 0 0 0 0 0 0 0 0 0 0 0 0
0 0 0 0 0 0 0 0 0 0 0 0 0 0 0 0 0 0 0 0 0 0 0 0 0 0 0 0 0 0 0 0 0 0 0 0 0 0 0 0 0 0 0 0 0 0 0 0 0
0 0 0 0 0 0 0 0 0 0 0 0 0 0 0 0 0 0 0 0 0 0 0 0 0 0 0 0 0 0 0 0 0 0 0 0 0 0 0 0 0 0 0 0 0 0 0 0 0
0 0 0 0 0 -0 0 0 0 0 0 0 0 0 0 0 0 0 0 0 0 0 0 0 0 0 0 0 0 0 0 0 0 0 0 0 0 0 0 0 0 0 0 0 0 0 0 0 0
0 0 0 0 0 0 0 0 -0 0 0 0 0 0 0 0 0 0 0 0 0 0 0 0 0 0 0 0 0 0 0 0 0 0 0 0 0 0 0 0 0 0 0 0 0 0 0 0 0
0 0 0 0 0 0 -0 -0 0 0 0 0 0 0 0 0 0 0 0 0 0 0 0 0 0 0 0 0 0 0 0 0 0 0 0 0 0 0 0 0 0 0 0 0 0 0 0 0 0
0 0 0 0 0 0 0 -0 0 0 0 0 0 0 0 0 0 0 0 0 0 0 0 0 0 0 0 0 0 0 0 0 0 0 0 0 0 0 0 0 0 0 0 0 0 0 0 0 0
0 0 0 0 0 0 0 -0 0 0 0 0 0 0 0 0 0 0 0 0 0 0 0 0 0 0 0 0 0 0 0 0 0 0 0 0 0 0 0 0 0 0 0 0 0 0 0 0 0
0 0 0 0 -0 0 0 -0 -0 -0 -0 0 -0 0 0 0 0 0 0 0 0 0 0 0 0 0 0 0 0 0 0 0 0 0 0 0 0 0 0 0 0 0 0 0 0 0 0 0 0
0 0 0 0 0 -0 -0 -0 -0 0 0 -0 -0 0 0 0 0 0 0 0 0 0 0 0 0 0 0 0 0 0 0 0 0 0 0 0 0 0 0 0 0 0 0 0 0 0 0 0 0
0 0 -0 -0 0 0 0 -0 -0 -0 0 0 0 0 0 0 0 -0 -0 0 0 0 0 0 0 0 0 0 0 0 0 0 0 0 0 0 0 0 0 0 0 0 0 0 0 0 0 0 0
0 0 0 -0 -0 -0 -0 -0 -0 -0 -0 0 0 0 0 0 0 0 0 0 0 0 0 0 1 1 0 0 0 0 0 0 0 0 0 0 0 0 0 0 0 0 0 0 0 0 0 0 0
-0 0 0 0 -0 -0 -0 -0 -0 -0 0 0 0 0 0 0 0 0 0 0 0 0 0 0 0 0 0 0 0 0 0 0 0 0 0 0 0 0 0 0 0 0 0 0 0 0 0 0 0
0 0 0 0 0 0 -0 -0 -0 0 0 0 0 0 0 0 0 0 0 0 0 0 0 0 0 0 0 0 0 0 0 0 0 0 0 0 0 0 0 0 0 0 0 0 0 0 0 0 0
0 0 0 0 0 -0 0 0 -0 -0 -0 0 0 0 0 0 0 0 0 0 0 0 0 0 0 0 0 0 0 0 0 0 0 0 0 0 0 0 0 0 0 0 0 0 0 0 0 0 0
0 -0 -0 0 -0 -0 0 0 0 0 0 0 0 0 0 0 0 0 0 0 0 0 0 0 0 0 0 0 0 0 0 0 0 0 0 0 0 0 0 0 0 0 0 0 0 0 0 0 0
-0 0 0 -0 0 0 0 0 0 0 0 0 0 0 0 0 0 0 0 0 0 0 0 0 0 0 0 0 0 0 0 0 0 0 0 0 0 0 0 0 0 0 0 0 0 0 0 0 0
0 0 0 0 0 0 0 0 0 0 0 0 0 0 0 0 0 0 0 0 0 0 0 0 0 0 0 0 0 0 0 0 0 0 0 0 0 0 0 0 0 0 0 0 0 0 0 0 0
0 0 0 0 0 0 0 0 0 0 0 0 0 0 0 0 0 0 0 0 0 0 0 0 0 0 0 0 0 0 0 0 0 0 0 0 0 0 0 0 0 0 0 0 0 0 0 0 0
0 0 0 0 0 0 0 0 0 -0 -0 -0 -0 0 -0 0 0 0 0 0 0 0 0 0 0 0 0 0 0 0 0 0 0 0 0 0 0 0 0 0 0 0 0 0 0 0 0 0 0
0 0 0 0 0 0 0 0 0 0 -0 -0 -0 -0 0 -0 -0 0 0 0 0 0 0 0 0 0 0 0 0 0 0 0 0 0 0 0 0 0 0 0 0 0 0 0 0 0 0 0 0
Wind_Speed_500mb
11 8 4 5 5 6 5 11 4 9 6 6 13 9 19 9 11 7 16 45 52 71 70 66 58 52 48 47 44 41 37 35 30 25 17 12 10 9 9 11 14 19 23 21 19 19 17 17 16
12 2 11 7 7 2 8 7 16 11 7 5 14 7 7 8 9 5 34 49 55 68 71 67 60 54 50 47 44 42 39 35 30 22 15 11 11 13 18 25 27 28 31 32 29 22 18 15 13
7 10 9 7 6 10 8 10 11 10 18 8 6 7 9 5 14 8 33 49 64 70 69 66 63 57 51 49 47 44 41 36 29 20 16 14 13 17 26 28 28 29 29 29 29 29 25 21 15
6 9 8 6 14 11 12 7 6 13 5 15 6 5 7 12 9 29 38 51 67 71 68 65 61 56 52 50 48 46 41 38 32 23 18 15 16 19 24 27 28 26 25 23 23 22 20 19 19
7 8 6 4 12 9 9 18 24 10 7 10 9 6 5 13 17 41 44 54 67 73 69 65 60 56 52 50 48 45 40 37 31 25 20 17 18 21 24 24 24 23 22 20 20 19 18 16 13
6 7 5 8 10 9 12 23 25 10 14 7 9 5 6 15 26 34 43 55 65 71 68 64 61 57 53 51 49 46 42 37 31 25 22 19 21 23 22 21 20 19 18 17 16 15 14 14 13
8 7 6 6 8 10 8 10 8 19 18 15 8 8 6 27 28 32 42 52 61 66 68 65 61 58 54 51 49 47 43 38 32 26 23 22 23 24 22 20 17 15 15 14 12 12 11 10 9
4 7 1 7 5 13 5 13 14 10 18 21 18 9 8 35 36 41 43 51 58 66 66 65 62 60 57 54 50 48 45 41 34 29 25 24 23 24 23 20 18 15 13 11 10 10 6 7 11
5 6 6 8 8 9 9 13 11 12 16 11 20 13 10 34 41 47 49 55 61 67 70 67 67 64 63 58 54 50 46 42 37 32 28 27 25 24 24 22 20 17 14 11 8 4 5 13 18
5 5 11 10 6 7 19 7 18 12 11 11 15 19 16 33 49 55 62 64 67 68 73 73 69 64 63 62 59 55 52 48 42 37 33 30 26 25 24 22 20 19 18 14 10 7 11 20 24
4 8 5 10 23 19 12 17 9 11 10 12 9 21 20 36 54 56 61 65 68 66 71 76 73 68 66 67 64 60 57 53 47 41 37 33 30 29 27 24 22 21 20 15 11 12 19 26 27
5 24 19 30 19 18 10 22 17 12 27 16 17 20 27 40 58 63 64 65 67 70 71 76 75 71 67 67 67 64 63 58 54 47 42 38 35 33 30 28 25 28 25 21 19 21 27 30 29
8 7 17 32 41 38 29 31 19 35 55 48 46 29 28 41 55 62 59 60 62 68 73 76 76 72 70 71 69 68 66 61 55 50 45 42 38 35 33 32 31 32 28 22 25 29 30 30 30
9 15 28 31 34 29 18 21 5 54 56 51 34 35 38 40 54 59 64 63 63 64 70 75 78 74 73 74 72 71 68 62 57 53 49 45 41 38 36 35 33 35 36 29 29 30 31 31 27
14 9 11 8 9 9 14 12 13 71 45 48 52 51 42 43 52 65 67 71 67 65 64 69 75 75 77 76 73 72 70 64 58 54 51 49 45 42 39 37 34 27 27 27 31 32 33 29 25
5 4 7 7 11 5 5 17 17 26 34 40 51 43 40 46 50 61 68 71 70 62 65 67 70 74 78 78 76 72 70 66 59 55 53 50 48 45 42 38 35 31 33 33 32 33 31 26 27
13 5 10 15 14 15 9 12 18 68 60 51 59 59 49 46 50 55 67 68 71 70 68 69 71 73 74 72 71 66 67 65 57 55 53 48 48 44 44 44 41 41 37 35 33 32 28 28 29
10 8 6 11 11 30 36 35 32 45 49 54 60 75 73 66 62 46 60 69 72 72 75 73 71 73 74 71 73 71 71 66 61 61 60 53 53 50 48 48 44 40 36 35 32 31 29 29 28
10 7 12 15 18 10 16 33 27 46 47 48 51 65 75 78 75 64 53 48 73 82 81 83 81 80 81 85 83 75 71 70 68 68 70 64 57 57 54 47 42 39 36 35 33 32 29 28 26
12 12 12 13 12 15 28 44 31 31 34 43 48 48 53 64 74 74 69 60 59 75 90 91 88 87 90 90 83 76 75 75 71 77 75 72 68 61 55 49 43 41 38 36 33 32 29 28 26
9 12 18 18 17 18 19 18 6 8 9 44 61 59 61 58 60 55 49 48 49 63 78 93 94 90 94 94 89 88 87 84 83 84 79 78 70 58 54 51 49 42 39 37 33 32 30 28 27
7 24 17 18 18 8 16 16 6 7 26 39 57 64 64 75 65 59 57 48 43 45 66 79 92 95 92 97 98 98 94 93 94 89 79 79 73 66 63 57 49 44 40 37 35 33 31 30 28
7 31 25 24 12 7 3 8 12 25 33 41 52 64 68 69 73 70 68 58 45 38 43 64 81 94 98 100 102 103 102 93 86 85 79 76 76 67 70 57 55 46 41 38 36 32 30 29 28
29 17 12 5 5 6 10 8 7 12 15 31 46 57 67 79 81 81 69 61 48 35 32 43 65 89 98 105 106 104 106 102 94 92 90 78 77 69 69 58 52 47 41 37 35 33 31 30 27
39 12 9 12 2 8 8 9 10 18 28 28 35 49 59 70 78 90 91 80 68 49 32 28 50 71 93 103 106 105 107 105 99 93 91 82 78 77 70 60 58 49 41 37 35 33 29 27 24
13 8 7 9 6 10 23 10 11 26 40 52 53 59 70 74 79 89 88 88 79 65 45 28 35 55 73 90 100 99 104 100 101 94 90 88 84 82 74 69 54 47 42 39 35 32 28 25 23
16 8 9 6 12 11 9 5 7 41 40 63 71 77 75 77 80 79 86 85 87 78 59 40 28 38 56 74 88 95 97 99 99 97 91 89 85 76 71 59 53 46 44 38 35 31 28 24 21
5 12 10 8 11 11 5 6 10 32 37 38 49 65 73 80 87 89 90 82 83 79 72 53 32 29 41 59 74 84 86 89 89 89 89 85 83 80 71 66 49 51 45 39 35 32 27 23 21
9 6 7 4 1 7 11 9 7 9 21 26 42 53 61 70 79 86 86 92 76 75 72 63 47 30 29 42 57 69 76 83 84 83 80 85 84 71 68 55 56 51 44 39 35 31 27 23 20
4 4 6 7 12 7 11 22 16 27 28 34 40 43 58 68 73 85 85 90 99 78 72 66 58 41 25 31 44 58 68 71 71 72 69 77 68 66 62 61 50 49 44 39 35 30 26 23 20
Wind_Direction_500mb
319 313 212 168 52 59 262 259 283 260 263 202 139 174 195 163 168 204 172 172 174 174 173 171 173 172 172 172 172 171 171 167 162 157 152 141 128 120 117 113 107 99 95 97 112 121 120 127 133
320 142 156 122 107 238 260 248 237 222 239 176 181 169 168 215 195 207 163 168 173 176 174 173 175 174 175 175 175 173 171 169 166 161 153 140 129 121 117 115 111 103 96 93 98 108 113 117 129
321 160 155 123 154 199 229 221 268 281 251 204 213 199 171 209 206 199 173 170 171 178 177 175 176 177 178 176 175 176 174 172 170 166 159 153 143 128 122 118 113 107 103 101 99 98 98 96 111
127 130 83 123 223 245 207 251 216 331 342 235 253 225 209 194 187 177 176 173 173 178 178 178 179 179 180 179 179 179 178 177 174 174 170 162 155 142 135 127 119 112 106 102 101 101 99 95 90
131 104 74 239 251 258 258 259 277 274 248 239 235 275 236 196 196 178 177 177 176 179 179 180 181 182 183 182 183 183 182 181 177 176 174 172 162 152 143 134 126 120 113 108 103 99 94 92 91
83 87 88 243 264 274 271 268 256 219 260 260 201 190 236 188 176 178 178 180 178 181 181 183 183 185 186 186 187 187 187 184 182 183 179 176 168 160 154 147 139 132 127 120 111 102 91 80 74
105 88 206 268 272 295 253 311 229 235 222 240 228 177 231 187 177 185 180 181 182 185 184 185 187 188 189 191 192 192 193 191 192 191 185 179 172 169 164 162 153 146 139 132 125 115 98 76 52
85 91 311 248 267 276 305 316 302 260 255 236 209 214 226 195 181 177 179 184 186 189 190 189 190 191 192 194 196 198 198 197 199 197 192 184 180 176 174 170 167 163 160 159 155 139 97 29 354
128 73 241 254 179 257 340 1 324 302 275 230 203 210 216 187 186 180 182 186 191 194 194 192 196 195 194 196 198 200 202 202 203 202 197 193 187 182 180 177 179 180 182 185 181 168 349 340 333
129 137 233 219 242 290 310 318 319 323 324 258 244 225 218 196 194 190 189 192 196 198 197 197 200 199 197 199 199 200 202 205 207 206 202 199 194 189 189 192 194 200 202 200 210 251 314 330 325
49 242 284 271 283 306 295 305 309 311 293 248 293 262 222 197 199 200 199 202 202 202 200 199 202 202 202 199 201 201 205 207 208 209 207 204 201 199 200 203 211 214 211 218 241 266 301 315 318
203 240 283 285 294 309 293 302 289 257 264 285 308 302 243 210 204 207 208 208 206 205 205 204 205 204 206 204 204 205 207 209 209 209 209 210 207 208 209 213 220 219 216 232 249 279 296 307 309
201 263 279 281 305 294 290 269 264 272 273 276 282 284 267 234 220 214 215 213 210 211 210 209 208 207 207 208 207 208 211 213 212 212 213 214 213 214 218 223 229 231 231 239 266 276 292 299 301
310 276 290 301 280 268 265 275 157 271 275 280 282 273 264 247 237 220 219 219 218 218 216 213 212 212 210 211 211 213 214 214 214 216 217 217 218 218 222 230 237 242 231 246 259 279 289 294 288
289 304 314 270 327 271 321 303 222 278 286 287 276 273 271 262 243 238 231 226 226 223 220 218 216 216 214 213 214 216 217 215 217 219 221 219 220 222 227 235 240 227 234 251 267 278 287 287 280
287 88 357 334 1 309 62 286 287 351 354 325 323 315 288 264 255 246 241 237 233 227 226 224 222 219 219 217 219 218 220 220 219 222 226 225 224 225 225 237 238 238 253 258 265 276 280 275 280
18 3 3 324 15 353 37 293 292 308 318 314 313 309 305 289 263 252 247 245 241 239 236 231 226 224 223 221 223 226 227 223 223 224 225 229 230 230 232 232 227 237 245 256 266 271 270 274 280
318 327 303 272 308 310 299 282 287 295 298 294 297 298 298 295 288 284 256 251 248 244 242 240 236 229 225 223 219 223 227 223 220 226 222 228 226 226 230 229 224 237 245 255 261 263 263 268 275
276 251 264 270 268 296 261 276 276 288 290 286 281 286 290 292 293 292 286 272 252 248 244 240 236 232 226 222 220 220 222 221 219 220 222 225 228 227 223 221 230 238 247 254 257 258 258 262 264
344 302 308 290 340 330 297 291 285 258 273 283 298 310 306 310 312 313 305 291 269 251 245 243 239 234 230 228 227 223 221 217 218 222 222 222 226 229 221 222 231 237 245 252 255 253 254 257 255
335 2 336 307 318 277 311 287 71 282 257 31 14 3 359 353 345 333 324 306 290 267 249 242 240 236 234 232 229 225 224 220 220 221 226 219 226 222 220 224 230 238 245 250 249 249 252 252 251
17 338 310 300 330 313 42 295 23 305 32 21 11 8 0 357 353 349 339 324 304 281 264 247 240 237 236 234 233 231 225 226 223 225 224 228 233 223 218 219 229 235 243 245 244 245 247 249 252
328 311 284 272 251 312 317 272 298 32 11 357 356 356 359 359 360 357 352 338 319 290 266 256 243 238 236 235 233 232 233 233 231 228 220 223 218 223 216 218 227 230 238 240 241 240 241 246 251
341 318 298 170 236 234 18 319 45 25 358 342 351 356 357 358 359 5 1 355 338 310 271 256 252 242 237 237 235 234 232 232 231 226 217 222 218 218 222 219 224 228 232 234 236 236 237 240 242
354 15 354 3 5 225 0 347 33 30 5 344 333 349 357 1 1 6 9 3 356 341 313 264 259 253 244 238 235 235 234 235 235 235 225 219 218 217 214 221 222 224 230 230 231 231 233 235 238
328 3 129 283 304 295 329 251 50 8 357 347 357 357 355 358 357 1 8 9 2 356 341 306 273 261 252 242 235 232 233 231 231 231 230 221 220 214 218 216 213 219 225 226 226 229 230 230 229
310 31 184 227 251 252 226 175 303 7 14 6 1 2 359 359 355 352 2 7 7 359 354 338 301 269 257 244 235 231 232 230 230 227 226 219 214 218 213 209 214 214 221 220 223 225 225 224 228
95 5 19 352 324 309 294 61 4 3 10 5 1 3 357 359 357 354 358 4 9 4 359 353 333 302 269 249 237 233 232 230 230 225 224 219 218 210 208 205 204 213 211 216 219 220 222 221 223
20 48 26 148 358 305 325 285 153 24 10 357 353 355 358 355 358 354 357 3 5 5 6 1 352 326 290 261 243 235 231 227 229 223 223 219 212 209 207 204 208 203 208 212 214 215 215 214 215
127 121 136 124 289 244 252 250 233 16 6 357 336 340 347 7 2 1 1 4 8 6 6 5 360 348 308 267 249 237 233 226 224 225 223 221 207 209 205 212 202 200 202 206 208 209 208 207 208
Wind_Speed_850mb
11 8 4 5 5 6 5 11 4 9 6 6 13 9 19 9 11 7 16 45 52 71 70 66 58 52 48 47 44 41 37 35 30 25 17 12 10 9 9 11 14 19 23 21 19 19 17 17 16
12 2 11 7 7 2 8 7 16 11 7 5 14 7 7 8 9 5 34 49 55 68 71 67 60 54 50 47 44 42 39 35 30 22 15 11 11 13 18 25 27 28 31 32 29 22 18 15 13
7 10 9 7 6 10 8 10 11 10 18 8 6 7 9 5 14 8 33 49 64 70 69 66 63 57 51 49 47 44 41 36 29 20 16 14 13 17 26 28 28 29 29 29 29 29 25 21 15
6 9 8 6 14 11 12 7 6 13 5 15 6 5 7 12 9 29 38 51 67 71 68 65 61 56 52 50 48 46 41 38 32 23 18 15 16 19 24 27 28 26 25 23 23 22 20 19 19
7 8 6 4 12 9 9 18 24 10 7 10 9 6 5 13 17 41 44 54 67 73 69 65 60 56 52 50 48 45 40 37 31 25 20 17 18 21 24 24 24 23 22 20 20 19 18 16 13
6 7 5 8 10 9 12 23 25 10 14 7 9 5 6 15 26 34 43 55 65 71 68 64 61 57 53 51 49 46 42 37 31 25 22 19 21 23 22 21 20 19 18 17 16 15 14 14 13
8 7 6 6 8 10 8 10 8 19 18 15 8 8 6 27 28 32 42 52 61 66 68 65 61 58 54 51 49 47 43 38 32 26 23 22 23 24 22 20 17 15 15 14 12 12 11 10 9
4 7 1 7 5 13 5 13 14 10 18 21 18 9 8 35 36 41 43 51 58 66 66 65 62 60 57 54 50 48 45 41 34 29 25 24 23 24 23 20 18 15 13 11 10 10 6 7 11
5 6 6 8 8 9 9 13 11 12 16 11 20 13 10 34 41 47 49 55 61 67 70 67 67 64 63 58 54 50 46 42 37 32 28 27 25 24 24 22 20 17 14 11 8 4 5 13 18
5 5 11 10 6 7 19 7 18 12 11 11 15 19 16 33 49 55 62 64 67 68 73 73 69 64 63 62 59 55 52 48 42 37 33 30 26 25 24 22 20 19 18 14 10 7 11 20 24
4 8 5 10 23 19 12 17 9 11 10 12 9 21 20 36 54 56 61 65 68 66 71 76 73 68 66 67 64 60 57 53 47 41 37 33 30 29 27 24 22 21 20 15 11 12 19 26 27
5 24 19 30 19 18 10 22 17 12 27 16 17 20 27 40 58 63 64 65 67 70 71 76 75 71 67 67 67 64 63 58 54 47 42 38 35 33 30 28 25 28 25 21 19 21 27 30 29
8 7 17 32 41 38 29 31 19 35 55 48 46 29 28 41 55 62 59 60 62 68 73 76 76 72 70 71 69 68 66 61 55 50 45 42 38 35 33 32 31 32 28 22 25 29 30 30 30
9 15 28 31 34 29 18 21 5 54 56 51 34 35 38 40 54 59 64 63 63 64 70 75 78 74 73 74 72 71 68 62 57 53 49 45 41 38 36 35 33 35 36 29 29 30 31 31 27
14 9 11 8 9 9 14 12 13 71 45 48 52 51 42 43 52 65 67 71 67 65 64 69 75 75 77 76 73 72 70 64 58 54 51 49 45 42 39 37 34 27 27 27 31 32 33 29 25
5 4 7 7 11 5 5 17 17 26 34 40 51 43 40 46 50 61 68 71 70 62 65 67 70 74 78 78 76 72 70 66 59 55 53 50 48 45 42 38 35 31 33 33 32 33 31 26 27
13 5 10 15 14 15 9 12 18 68 60 51 59 59 49 46 50 55 67 68 71 70 68 69 71 73 74 72 71 66 67 65 57 55 53 48 48 44 44 44 41 41 37 35 33 32 28 28 29
10 8 6 11 11 30 36 35 32 45 49 54 60 75 73 66 62 46 60 69 72 72 75 73 71 73 74 71 73 71 71 66 61 61 60 53 53 50 48 48 44 40 36 35 32 31 29 29 28
10 7 12 15 18 10 16 33 27 46 47 48 51 65 75 78 75 64 53 48 73 82 81 83 81 80 81 85 83 75 71 70 68 68 70 64 57 57 54 47 42 39 36 35 33 32 29 28 26
12 12 12 13 12 15 28 44 31 31 34 43 48 48 53 64 74 74 69 60 59 75 90 91 88 87 90 90 83 76 75 75 71 77 75 72 68 61 55 49 43 41 38 36 33 32 29 28 26
9 12 18 18 17 18 19 18 6 8 9 44 61 59 61 58 60 55 49 48 49 63 78 93 94 90 94 94 89 88 87 84 83 84 79 78 70 58 54 51 49 42 39 37 33 32 30 28 27
7 24 17 18 18 8 16 16 6 7 26 39 57 64 64 75 65 59 57 48 43 45 66 79 92 95 92 97 98 98 94 93 94 89 79 79 73 66 63 57 49 44 40 37 35 33 31 30 28
7 31 25 24 12 7 3 8 12 25 33 41 52 64 68 69 73 70 68 58 45 38 43 64 81 94 98 100 102 103 102 93 86 85 79 76 76 67 70 57 55 46 41 38 36 32 30 29 28
29 17 12 5 5 6 10 8 7 12 15 31 46 57 67 79 81 81 69 61 48 35 32 43 65 89 98 105 106 104 106 102 94 92 90 78 77 69 69 58 52 47 41 37 35 33 31 30 27
39 12 9 12 2 8 8 9 10 18 28 28 35 49 59 70 78 90 91 80 68 49 32 28 50 71 93 103 106 105 107 105 99 93 91 82 78 77 70 60 58 49 41 37 35 33 29 27 24
13 8 7 9 6 10 23 10 11 26 40 52 53 59 70 74 79 89 88 88 79 65 45 28 35 55 73 90 100 99 104 100 101 94 90 88 84 82 74 69 54 47 42 39 35 32 28 25 23
16 8 9 6 12 11 9 5 7 41 40 63 71 77 75 77 80 79 86 85 87 78 59 40 28 38 56 74 88 95 97 99 99 97 91 89 85 76 71 59 53 46 44 38 35 31 28 24 21
5 12 10 8 11 11 5 6 10 32 37 38 49 65 73 80 87 89 90 82 83 79 72 53 32 29 41 59 74 84 86 89 89 89 89 85 83 80 71 66 49 51 45 39 35 32 27 23 21
9 6 7 4 1 7 11 9 7 9 21 26 42 53 61 70 79 86 86 92 76 75 72 63 47 30 29 42 57 69 76 83 84 83 80 85 84 71 68 55 56 51 44 39 35 31 27 23 20
4 4 6 7 12 7 11 22 16 27 28 34 40 43 58 68 73 85 85 90 99 78 72 66 58 41 25 31 44 58 68 71 71 72 69 77 68 66 62 61 50 49 44 39 35 30 26 23 20
Wind_Direction_850mb
319 313 212 168 52 59 262 259 283 260 263 202 139 174 195 163 168 204 172 172 174 174 173 171 173 172 172 172 172 171 171 167 162 157 152 141 128 120 117 113 107 99 95 97 112 121 120 127 133
320 142 156 122 107 238 260 248 237 222 239 176 181 169 168 215 195 207 163 168 173 176 174 173 175 174 175 175 175 173 171 169 166 161 153 140 129 121 117 115 111 103 96 93 98 108 113 117 129
321 160 155 123 154 199 229 221 268 281 251 204 213 199 171 209 206 199 173 170 171 178 177 175 176 177 178 176 175 176 174 172 170 166 159 153 143 128 122 118 113 107 103 101 99 98 98 96 111
127 130 83 123 223 245 207 251 216 331 342 235 253 225 209 194 187 177 176 173 173 178 178 178 179 179 180 179 179 179 178 177 174 174 170 162 155 142 135 127 119 112 106 102 101 101 99 95 90
131 104 74 239 251 258 258 259 277 274 248 239 235 275 236 196 196 178 177 177 176 179 179 180 181 182 183 182 183 183 182 181 177 176 174 172 162 152 143 134 126 120 113 108 103 99 94 92 91
83 87 88 243 264 274 271 268 256 219 260 260 201 190 236 188 176 178 178 180 178 181 181 183 183 185 186 186 187 187 187 184 182 183 179 176 168 160 154 147 139 132 127 120 111 102 91 80 74
105 88 206 268 272 295 253 311 229 235 222 240 228 177 231 187 177 185 180 181 182 185 184 185 187 188 189 191 192 192 193 191 192 191 185 179 172 169 164 162 153 146 139 132 125 115 98 76 52
85 91 311 248 267 276 305 316 302 260 255 236 209 214 226 195 181 177 179 184 186 189 190 189 190 191 192 194 196 198 198 197 199 197 192 184 180 176 174 170 167 163 160 159 155 139 97 29 354
128 73 241 254 179 257 340 1 324 302 275 230 203 210 216 187 186 180 182 186 191 194 194 192 196 195 194 196 198 200 202 202 203 202 197 193 187 182 180 177 179 180 182 185 181 168 349 340 333
129 137 233 219 242 290 310 318 319 323 324 258 244 225 218 196 194 190 189 192 196 198 197 197 200 199 197 199 199 200 202 205 207 206 202 199 194 189 189 192 194 200 202 200 210 251 314 330 325
49 242 284 271 283 306 295 305 309 311 293 248 293 262 222 197 199 200 199 202 202 202 200 199 202 202 202 199 201 201 205 207 208 209 207 204 201 199 200 203 211 214 211 218 241 266 301 315 318
203 240 283 285 294 309 293 302 289 257 264 285 308 302 243 210 204 207 208 208 206 205 205 204 205 204 206 204 204 205 207 209 209 209 209 210 207 208 209 213 220 219 216 232 249 279 296 307 309
201 263 279 281 305 294 290 269 264 272 273 276 282 284 267 234 220 214 215 213 210 211 210 209 208 207 207 208 207 208 211 213 212 212 213 214 213 214 218 223 229 231 231 239 266 276 292 299 301
310 276 290 301 280 268 265 275 157 271 275 280 282 273 264 247 237 220 219 219 218 218 216 213 212 212 210 211 211 213 214 214 214 216 217 217 218 218 222 230 237 242 231 246 259 279 289 294 288
289 304 314 270 327 271 321 303 222 278 286 287 276 273 271 262 243 238 231 226 226 223 220 218 216 216 214 213 214 216 217 215 217 219 221 219 220 222 227 235 240 227 234 251 267 278 287 287 280
287 88 357 334 1 309 62 286 287 351 354 325 323 315 288 264 255 246 241 237 233 227 226 224 222 219 219 217 219 218 220 220 219 222 226 225 224 225 225 237 238 238 253 258 265 276 280 275 280
18 3 3 324 15 353 37 293 292 308 318 314 313 309 305 289 263 252 247 245 241 239 236 231 226 224 223 221 223 226 227 223 223 224 225 229 230 230 232 232 227 237 245 256 266 271 270 274 280
318 327 303 272 308 310 299 282 287 295 298 294 297 298 298 295 288 284 256 251 248 244 242 240 236 229 225 223 219 223 227 223 220 226 222 228 226 226 230 229 224 237 245 255 261 263 263 268 275
276 251 264 270 268 296 261 276 276 288 290 286 281 286 290 292 293 292 286 272 252 248 244 240 236 232 226 222 220 220 222 221 219 220 222 225 228 227 223 221 230 238 247 254 257 258 258 262 264
344 302 308 290 340 330 297 291 285 258 273 283 298 310 306 310 312 313 305 291 269 251 245 243 239 234 230 228 227 223 221 217 218 222 222 222 226 229 221 222 231 237 245 252 255 253 254 257 255
335 2 336 307 318 277 311 287 71 282 257 31 14 3 359 353 345 333 324 306 290 267 249 242 240 236 234 232 229 225 224 220 220 221 226 219 226 222 220 224 230 238 245 250 249 249 252 252 251
17 338 310 300 330 313 42 295 23 305 32 21 11 8 0 357 353 349 339 324 304 281 264 247 240 237 236 234 233 231 225 226 223 225 224 228 233 223 218 219 229 235 243 245 244 245 247 249 252
328 311 284 272 251 312 317 272 298 32 11 357 356 356 359 359 360 357 352 338 319 290 266 256 243 238 236 235 233 232 233 233 231 228 220 223 218 223 216 218 227 230 238 240 241 240 241 246 251
341 318 298 170 236 234 18 319 45 25 358 342 351 356 357 358 359 5 1 355 338 310 271 256 252 242 237 237 235 234 232 232 231 226 217 222 218 218 222 219 224 228 232 234 236 236 237 240 242
354 15 354 3 5 225 0 347 33 30 5 344 333 349 357 1 1 6 9 3 356 341 313 264 259 253 244 238 235 235 234 235 235 235 225 219 218 217 214 221 222 224 230 230 231 231 233 235 238
328 3 129 283 304 295 329 251 50 8 357 347 357 357 355 358 357 1 8 9 2 356 341 306 273 261 252 242 235 232 233 231 231 231 230 221 220 214 218 216 213 219 225 226 226 229 230 230 229
310 31 184 227 251 252 226 175 303 7 14 6 1 2 359 359 355 352 2 7 7 359 354 338 301 269 257 244 235 231 232 230 230 227 226 219 214 218 213 209 214 214 221 220 223 225 225 224 228
95 5 19 352 324 309 294 61 4 3 10 5 1 3 357 359 357 354 358 4 9 4 359 353 333 302 269 249 237 233 232 230 230 225 224 219 218 210 208 205 204 213 211 216 219 220 222 221 223
20 48 26 148 358 305 325 285 153 24 10 357 353 355 358 355 358 354 357 3 5 5 6 1 352 326 290 261 243 235 231 227 229 223 223 219 212 209 207 204 208 203 208 212 214 215 215 214 215
127 121 136 124 289 244 252 250 233 16 6 357 336 340 347 7 2 1 1 4 8 6 6 5 360 348 308 267 249 237 233 226 224 225 223 221 207 209 205 212 202 200 202 206 208 209 208 207 208